San Francisco, CA

2:17 PM PST on December 05, 2019 (GMT -0800)
San Francisco International

Weather History for KSFO - November, 2019

Change the Weather History Date:

Saturday, November 16, 2019

  Actual Average Record
Temperature  
Mean Temperature 58 °F 56 °F  
Max Temperature 65 °F 63 °F 73 °F (1989)
Min Temperature 51 °F 49 °F 38 °F (1958)
Degree Days  
Heating Degree Days 7 9  
Month to date heating degree days 106 123  
Since 1 July heating degree days 223 410  
Cooling Degree Days 0 0  
Month to date cooling degree days 0 0  
Year to date cooling degree days 384 163  
Growing Degree Days 8 (Base 50)    
Moisture  
Dew Point 51 °F    
Average Humidity 90    
Maximum Humidity 100    
Minimum Humidity 72    
Precipitation  
Precipitation 0.00 in 0.08 in 1.60 in (2017)
Month to date precipitation 0.00 1.10  
Year to date precipitation 18.49 15.34  
Sea Level Pressure  
Sea Level Pressure 30.13 in    
Wind  
Wind Speed 4 mph ()    
Max Wind Speed 20 mph    
Max Gust Speed 22 mph    
Visibility 3.2 miles    
Events Fog    
T = Trace of Precipitation, MM = Missing Value Source: Averaged Metar Reports

Daily Weather History Graph

Daily Weather History Graph

Search for Another Location

Airport or City:

Astronomy

Nov. 16, 2019 Rise Set
Actual Time 6:50 AM PST 4:57 PM PST
Civil Twilight 6:22 AM PST 5:25 PM PST
Nautical Twilight 5:50 AM PST 5:57 PM PST
Astronomical Twilight 5:19 AM PST 6:28 PM PST
Moon 8:38 PM PST (11/16) 10:47 AM PST (11/16)
Length of Visible Light 11h 03m
Length of Day
10h 07m
Waning Gibbous, 81% of the Moon is Illuminated
Nov 16
Waning Gibbous
Nov 19
Last Quarter
Nov 26
New
Dec 3
First Quarter
Dec 11
Full

Hourly Weather History & Observations

Time (PST) Temp. Dew Point Humidity Pressure Visibility Wind Dir Wind Speed Gust Speed Precip Events Conditions
12:42 AM 55.9 °F 51.1 °F 84% 30.15 in 7.0 mi Calm Calm - N/A   Mostly Cloudy
12:56 AM 55.0 °F 52.0 °F 89% 30.16 in 6.0 mi Calm Calm - N/A   Mostly Cloudy
1:13 AM 54.0 °F 52.0 °F 93% 30.15 in 2.5 mi South 6.9 mph - N/A   Overcast
1:27 AM 53.1 °F 51.1 °F 93% 30.15 in 0.8 mi SSE 6.9 mph - N/A   Overcast
1:56 AM 52.0 °F 51.1 °F 97% 30.16 in 1.8 mi South 4.6 mph - N/A   Overcast
2:05 AM 52.0 °F 51.1 °F 97% 30.16 in 2.0 mi South 4.6 mph - N/A   Overcast
2:15 AM 53.1 °F 52.0 °F 96% 30.15 in 1.0 mi SSE 4.6 mph - N/A   Mist
2:22 AM 53.1 °F 52.0 °F 96% 30.15 in 0.5 mi SE 6.9 mph - N/A Fog Fog
2:34 AM 52.0 °F 52.0 °F 100% 30.15 in 0.2 mi Calm Calm - N/A Fog Fog
2:56 AM 52.0 °F 52.0 °F 100% 30.14 in 0.1 mi Calm Calm - N/A Fog Fog
3:56 AM 54.0 °F 51.1 °F 90% 30.14 in 0.1 mi SE 5.8 mph - N/A Fog Fog
4:56 AM 52.0 °F 50.0 °F 93% 30.15 in 0.1 mi Calm Calm - N/A Fog Fog
5:23 AM 52.0 °F 50.0 °F 93% 30.15 in 0.2 mi South 3.5 mph - N/A Fog Fog
5:37 AM 52.0 °F 50.0 °F 93% 30.15 in 0.5 mi SSE 4.6 mph - N/A Fog Fog
5:44 AM 51.8 °F 50.0 °F 94% 30.15 in 1.0 mi South 3.5 mph - N/A   Overcast
5:53 AM 51.8 °F 50.0 °F 94% 30.15 in 2.0 mi Calm Calm - N/A   Overcast
5:56 AM 52.0 °F 50.0 °F 93% 30.15 in 2.5 mi Calm Calm - N/A   Overcast
6:04 AM 52.0 °F 50.0 °F 93% 30.15 in 0.5 mi SSW 3.5 mph - N/A Fog Fog
6:16 AM 52.0 °F 50.0 °F 93% 30.16 in 0.2 mi Calm Calm - N/A Fog Fog
6:56 AM 52.0 °F 50.0 °F 93% 30.17 in 0.5 mi Calm Calm - N/A Fog Fog
7:09 AM 52.0 °F 50.0 °F 93% 30.16 in 0.2 mi South 3.5 mph - N/A Fog Fog
7:56 AM 53.1 °F 51.1 °F 93% 30.17 in 0.2 mi South 4.6 mph - N/A Fog Fog
8:56 AM 53.1 °F 52.0 °F 96% 30.17 in 0.2 mi East 3.5 mph - N/A Fog Fog
9:56 AM 55.0 °F 53.1 °F 93% 30.18 in 0.2 mi Calm Calm - N/A Fog Fog
10:31 AM 55.0 °F 53.1 °F 93% 30.17 in 0.5 mi SE 4.6 mph - N/A Fog Fog
10:56 AM 55.0 °F 53.1 °F 93% 30.17 in 0.5 mi Calm Calm - N/A Fog Fog
11:56 AM 55.9 °F 53.1 °F 90% 30.12 in 1.5 mi NE 3.5 mph - N/A   Scattered Clouds
12:15 PM 55.0 °F 53.1 °F 93% 30.12 in 0.8 mi NNE 5.8 mph - N/A   Mist
12:25 PM 55.9 °F 53.1 °F 90% 30.12 in 0.2 mi NNE 4.6 mph - N/A Fog Fog
12:38 PM 55.9 °F 53.1 °F 90% 30.11 in 1.5 mi NNE 3.5 mph - N/A   Mostly Cloudy
12:48 PM 55.9 °F 53.1 °F 90% 30.11 in 2.0 mi NNE 3.5 mph - N/A   Mostly Cloudy
12:56 PM 55.0 °F 53.1 °F 93% 30.11 in 2.0 mi NNE 4.6 mph - N/A   Mostly Cloudy
1:56 PM 59.0 °F 54.0 °F 83% 30.08 in 3.0 mi NE 3.5 mph - N/A   Haze
2:56 PM 62.1 °F 54.0 °F 75% 30.07 in 8.0 mi NNW 6.9 mph - N/A   Mostly Cloudy
3:56 PM 59.0 °F 51.1 °F 75% 30.07 in 8.0 mi WNW 18.4 mph - N/A   Mostly Cloudy
4:56 PM 55.9 °F 50.0 °F 80% 30.07 in 9.0 mi WNW 15.0 mph - N/A   Mostly Cloudy
5:56 PM 57.9 °F 51.1 °F 78% 30.09 in 9.0 mi West 12.7 mph - N/A   Mostly Cloudy
6:56 PM 57.9 °F 51.1 °F 78% 30.09 in 9.0 mi WNW 6.9 mph - N/A   Mostly Cloudy
7:56 PM 55.0 °F 50.0 °F 83% 30.09 in 9.0 mi WNW 6.9 mph - N/A   Mostly Cloudy
8:56 PM 55.0 °F 48.9 °F 80% 30.10 in 9.0 mi West 6.9 mph - N/A   Scattered Clouds
9:56 PM 52.0 °F 48.9 °F 89% 30.11 in 9.0 mi West 8.1 mph - N/A   Scattered Clouds
10:47 PM 53.1 °F 48.9 °F 86% 30.11 in 10.0 mi WNW 5.8 mph - N/A   Partly Cloudy
10:56 PM 53.1 °F 48.9 °F 86% 30.11 in 10.0 mi West 9.2 mph - N/A   Partly Cloudy
11:56 PM 52.0 °F 48.0 °F 86% 30.10 in 10.0 mi West 5.8 mph - N/A   Partly Cloudy